Weather History for West Palm Beach, FL

Change the Weather History Date:

Saturday, August 16, 2014

  Actual Average Record
Temperature  
Mean Temperature 83 °F 83 °F  
Max Temperature 93 °F 90 °F 97 °F (1948)
Min Temperature 73 °F 76 °F 69 °F (1927)
Degree Days  
Heating Degree Days 0 0  
Month to date heating degree days 0 0  
Since 1 June heating degree days 0 0  
Since 1 July heating degree days 0 0  
Cooling Degree Days 18 18  
Month to date cooling degree days 303 288  
Year to date cooling degree days 2707 2436  
Since 1 June cooling degree days 1355 1327  
Growing Degree Days 33 (Base 50)    
Moisture  
Dew Point 74 °F    
Average Humidity 75    
Maximum Humidity 94    
Minimum Humidity 56    
Precipitation  
Precipitation 2.37 in 0.27 in 2.37 in (2014)
Month to date precipitation 9.37 3.91  
Year to date precipitation 42.80 36.68  
Snow  
Snow 0.00 in - - ()
Month to date snowfall 0.0  
Since 1 June snowfall 0.0  
Since 1 July snowfall 0.0  
Snow Depth 0.00 in    
Sea Level Pressure  
Sea Level Pressure 30.08 in    
Wind  
Wind Speed 5 mph (SE)    
Max Wind Speed 37 mph    
Max Gust Speed 50 mph    
Visibility 8 miles    
Events Fog , Rain , Thunderstorm    
T = Trace of Precipitation, MM = Missing Value Source: NWS Daily Summary

Daily Weather History Graph

Daily Weather History Graph

Search for Another Location

Airport:

Trip Planner

Search our weather history database for the weather conditions in past years. The results will help you decide how hot, cold, wet, or windy it might be!

Date:

Astronomy

Aug. 16, 2014 Rise Set
Actual Time 6:52 AM EDT 7:56 PM EDT
Civil Twilight 6:28 AM EDT 8:20 PM EDT
Nautical Twilight 5:59 AM EDT 8:48 PM EDT
Astronomical Twilight 5:30 AM EDT 9:18 PM EDT
Moon No Moon Rise 12:56 PM EDT (8/16)
Length of Visible Light 13h 51m
Length of Day
13h 03m
Waning Gibbous, 59% of the Moon is Illuminated
Aug 16
Waning Gibbous
Aug 17
Last Quarter
Aug 25
New
Sep 2
First Quarter
Sep 8
Full

Hourly Weather History & Observations

Time (EDT) Temp. Heat Index Dew Point Humidity Pressure Visibility Wind Dir Wind Speed Gust Speed Precip Events Conditions
12:53 AM 75.9 °F - 73.0 °F 91% 30.01 in 10.0 mi SSW 5.8 mph - N/A   Scattered Clouds
1:53 AM 75.9 °F - 73.0 °F 91% 30.03 in 10.0 mi NNW 4.6 mph - N/A   Mostly Cloudy
2:53 AM 75.0 °F - 73.9 °F 96% 30.03 in 10.0 mi Calm Calm - N/A   Overcast
3:53 AM 75.0 °F - 73.0 °F 94% 30.03 in 10.0 mi NW 3.5 mph - N/A   Scattered Clouds
4:53 AM 75.0 °F - 73.0 °F 94% 30.03 in 10.0 mi Calm Calm - N/A   Mostly Cloudy
5:53 AM 75.0 °F - 73.0 °F 94% 30.03 in 10.0 mi Calm Calm - N/A   Overcast
6:53 AM 75.9 °F - 73.0 °F 91% 30.04 in 10.0 mi Calm Calm - N/A   Mostly Cloudy
7:53 AM 77.0 °F - 73.0 °F 88% 30.06 in 10.0 mi South 3.5 mph - N/A   Mostly Cloudy
8:53 AM 81.0 °F 86.7 °F 75.0 °F 82% 30.08 in 10.0 mi Calm Calm - N/A   Mostly Cloudy
9:53 AM 84.9 °F 95.3 °F 77.0 °F 77% 30.09 in 10.0 mi South 6.9 mph - N/A   Mostly Cloudy
10:53 AM 88.0 °F 100.2 °F 77.0 °F 70% 30.10 in 10.0 mi SSW 8.1 mph - N/A   Mostly Cloudy
11:53 AM 89.1 °F 99.1 °F 75.0 °F 63% 30.10 in 10.0 mi SW 9.2 mph - N/A   Mostly Cloudy
12:53 PM 91.0 °F 100.4 °F 73.9 °F 57% 30.09 in 10.0 mi SSW 8.1 mph - N/A   Mostly Cloudy
1:53 PM 90.0 °F 102.5 °F 77.0 °F 65% 30.07 in 10.0 mi SE 10.4 mph - N/A   Mostly Cloudy
2:24 PM 90.0 °F 101.3 °F 75.9 °F 63% 30.06 in 10.0 mi SE 16.1 mph - N/A Thunderstorm Thunderstorm
2:53 PM 89.1 °F 99.1 °F 75.0 °F 63% 30.06 in 10.0 mi SE 16.1 mph - N/A Thunderstorm Thunderstorm
3:40 PM 84.9 °F 96.6 °F 78.1 °F 80% 30.05 in 10.0 mi NE 12.7 mph - 0.03 in Rain , Thunderstorm Light Thunderstorms and Rain
3:53 PM 84.0 °F 93.7 °F 77.0 °F 79% 30.05 in 10.0 mi NE 15.0 mph - 0.03 in Thunderstorm Thunderstorm
3:59 PM 82.9 °F 90.8 °F 75.9 °F 79% 30.05 in 10.0 mi NE 16.1 mph - N/A Thunderstorm Thunderstorm
4:14 PM 81.0 °F 85.8 °F 73.0 °F 77% 30.08 in 1.0 mi WNW 18.4 mph 26.5 mph 0.00 in Rain , Thunderstorm Heavy Thunderstorms and Rain
4:21 PM 77.0 °F - 72.0 °F 84% 30.10 in 0.5 mi WNW 25.3 mph 39.1 mph 0.01 in Rain , Thunderstorm Heavy Thunderstorms and Rain
4:36 PM 75.9 °F - 68.0 °F 76% 30.12 in 0.1 mi SSW 18.4 mph 49.5 mph 0.77 in Rain , Thunderstorm Heavy Thunderstorms and Rain
4:42 PM 75.0 °F - 69.1 °F 82% 30.13 in 0.5 mi NW 9.2 mph 29.9 mph 1.36 in Rain , Thunderstorm Heavy Thunderstorms and Rain
4:53 PM 73.9 °F - 72.0 °F 93% 30.14 in 0.5 mi Calm Calm - 2.03 in Fog , Rain , Thunderstorm Heavy Thunderstorms and Rain
5:00 PM 73.9 °F - 73.0 °F 97% 30.11 in 1.5 mi East 10.4 mph - 0.11 in Rain , Thunderstorm Heavy Thunderstorms and Rain
5:10 PM 73.9 °F - 72.0 °F 93% 30.10 in 3.0 mi Calm Calm - 0.29 in Rain , Thunderstorm Heavy Thunderstorms and Rain
5:29 PM 75.0 °F - 73.0 °F 94% 30.11 in 10.0 mi North 4.6 mph - 0.30 in Rain , Thunderstorm Light Thunderstorms and Rain
5:53 PM 75.9 °F - 73.9 °F 94% 30.11 in 10.0 mi NE 5.8 mph - 0.30 in Thunderstorm Thunderstorm
6:53 PM 77.0 °F - 73.9 °F 90% 30.10 in 10.0 mi East 8.1 mph - 0.01 in   Overcast
7:53 PM 79.0 °F - 73.9 °F 84% 30.10 in 10.0 mi ENE 5.8 mph - 0.00 in   Mostly Cloudy
8:53 PM 78.1 °F - 73.9 °F 87% 30.09 in 10.0 mi Calm Calm - N/A   Mostly Cloudy
9:53 PM 79.0 °F - 75.0 °F 88% 30.09 in 10.0 mi Calm Calm - N/A   Mostly Cloudy
10:53 PM 77.0 °F - 75.0 °F 94% 30.10 in 10.0 mi Calm Calm - N/A   Mostly Cloudy
11:53 PM 77.0 °F - 75.0 °F 94% 30.09 in 10.0 mi Calm Calm - N/A   Overcast